Content
SEND FEEDBACK

United States of America Flag

TOMBSTONE, ARIZONA


Home > North America > United States > Arizona
Elevation: 4392 feet     Latitude: 31 43N     Longitude: 110 04W

WEATHER
 
SELECT A DAY
Number of Records: 141,664;   Date Range: 1/3/95 - 3/22/16
 
SHARE

PRINT THIS DATA

[ ← Previous Day ]
WEATHER ALMANAC - APRIL 28, 2013
[ Next Day → ]
[ °C ]   °F
Weather ElementAverageHighLow
Temperature72.9 °F84.9 °F (3:56 pm)59 °F (4:56 am)
Dewpoint10.1 °F32 °F (7:56 pm)1 °F (2:56 pm)
Humidity10.3 %23 % (7:56 pm)4 % (1:56 pm)
Barometer28.54 in29.91 in (7:56 am) (7:00 pm)
Wind Speed7.8 mph13.8 mph (3:56 pm)
Wind Gust17.3 mph (12:56 pm)
Weather ElementAverage
Visibility10 mi
Wind DirectionSSE (153 °)

Weather ElementTotal
Precipitation---
Cooling Degree Days7 (Base 65)
Growing Degree Days22 (Base 50)
Averaged from 23 records on April 28, 2013
WEATHER CONDITIONS BREAKOUT
WIND DIRECTION BREAKOUT
WEATHER BY HOUR - APRIL 28, 2013
[ °C ]   °F
Local TimeTemperatureDewpointHumidityBarometerVisibilityWind DirectionWind SpeedGust SpeedPrecipitationEventsConditions
1:56 AM63.0 °F16.0 °F16 %29.90 in10.0 miWSW (250°)12.7 mphClear
2:56 AM62.1 °F17.1 °F18 %29.88 in10.0 miWSW (250°)10.4 mphClear
3:56 AM61.0 °F17.1 °F18 %29.87 in10.0 miWSW (250°)8.1 mphClear
4:56 AM59.0 °F17.1 °F20 %29.88 in10.0 miWSW (250°)5.8 mphClear
5:56 AM60.1 °F15.1 °F17 %29.89 in10.0 miWSW (250°)6.9 mphClear
6:56 AM66.9 °F18.0 °F15 %29.89 in10.0 miSW (220°)4.6 mphClear
7:56 AM72.0 °F17.1 °F12 %29.91 in10.0 miCalmClear
8:56 AM73.9 °F15.1 °F11 %29.91 in10.0 miNE (40°)6.9 mphClear
9:56 AM77.0 °F12.0 °F8 %29.91 in10.0 miNorth (10°)5.8 mphClear
10:56 AM80.1 °F8.1 °F6 %29.90 in10.0 miNorth (10°)5.8 mphClear
11:56 AM81.0 °F3.9 °F5 %29.88 in10.0 miVariable4.6 mphClear
12:56 PM82.0 °F3.0 °F5 %29.86 in10.0 miVariable5.8 mph17.3 mphClear
1:56 PM82.9 °F1.9 °F4 %29.82 in10.0 miVariable5.8 mphClear
2:56 PM82.9 °F1.0 °F4 %29.79 in10.0 miVariable4.6 mphClear
3:56 PM84.9 °F1.9 °F4 %29.76 in10.0 miNNW (340°)13.8 mph17.3 mphClear
4:56 PM82.9 °F1.9 °F4 %29.76 in10.0 miNE (40°)9.2 mphClear
5:56 PM82.9 °F1.9 °F4 %29.75 in10.0 miNorth (10°)5.8 mphClear
6:56 PM78.1 °F3.0 °F5 %29.76 in10.0 miNW (310°)6.9 mphClear
7:56 PM71.6 °F32.0 °F23 %10.0 miWest (270°)9.2 mphClear
8:56 PM71.1 °F3.9 °F7 %29.79 in10.0 miWest (260°)12.7 mphClear
9:56 PM69.1 °F8.1 °F9 %29.80 in10.0 miWest (270°)8.1 mphClear
10:55 PM66.2 °F8.6 °F11 %29.81 in10.0 miWSW (250°)11.5 mphClear
11:55 PM66.2 °F8.6 °F11 %29.81 in10.0 miWSW (240°)13.8 mphClear
Hourly data recorded from KFHU, located miles away from Tombstone, Arizona




STORIES FROM OUR PARTNERS